STARLINK-1914 (47180 NORAD) Tracking and Keplerian Element Data

This shows tracking and keplerian element data for the satellite.

Feedback or suggestion? Click here.




ElementValue
Catalog47180
NameSTARLINK-1914
Epoch Orbit2239
Epoch Day106.25002315
Epoch Year2021
RAAN60.2469
Inclination53.0558
Eccentricity0.0001108
Argument of Perigee46.3446
Mean Anonmoly104.5302
Mean Motion15.0638036
Decay Rate0.00025257
L11 47180U 20088BL 21106.25002315 .00025257 00000-0 17093-2 0 9999
L22 47180 53.0558 60.2469 0001108 46.3446 104.5302 15.06380360 22395

Live tracking and technical data element details for STARLINK-1914 (NORAD 47180). STARLINK-1914 can be tracked NOW for your location showing map with azimuth and elevation plus other details from your city location.

Track the satellite on the map from your city or location and see movement details for azimuth, elevation, latitude, longitude, range, height, and movement on the map or in text.







IsCatalogInMostPopularTable: catalog: 47180, numindb: 53
Update: records affected: 1



GetName: 47180 STARLINK-1914

Hit Count: updated at: Fri, 16 Apr 2021 10:23:14 GMT